##Station,TimeStamp,StationCtrlCode,Month,Day,Year,Hour,Minute,Date_Time,Date_Time_Adj,WTR_TMP_F,Temp_F,WND_SPD,WND_DIR,Rain_hundredths,Velo_fps,Depth_Hundredths_of_Feet,COND,DOXY,Temp_RTC_F,Voltage_V,PRESS_PSI,GEN_INT
#STAT,DateTime,STAT,MO,DY,YR,HR,MIN,DateTime,DateTimeAdj,F,F,MPH,CCW_N,100*IN,FPS,100*FT,COND,PPM,F,V,PSI,COUNT
6240,0501241829,6240,05,01,24,18,29,05/01/24 18:29,05/01/24 18:25,0,0,0,0,0,0,00807,0,0,0085,1362,0,0
6240,0501241830,6240,05,01,24,18,30,05/01/24 18:30,05/01/24 18:30,0,0,0,0,0,0,00813,0,0,0084,1359,0,0
6240,0501241830,6240,05,01,24,18,30,05/01/24 18:30,05/01/24 18:30,0,0,0,0,0,0,00814,0,0,0085,1358,0,0
6240,0501241831,6240,05,01,24,18,31,05/01/24 18:31,05/01/24 18:30,0,0,0,0,0,0,00811,0,0,0084,1354,0,0
6240,0501241831,6240,05,01,24,18,31,05/01/24 18:31,05/01/24 18:30,0,0,0,0,0,0,00814,0,0,0084,1358,0,0
6240,0501241832,6240,05,01,24,18,32,05/01/24 18:32,05/01/24 18:30,0,0,0,0,0,0,00807,0,0,0084,1358,0,0
6240,0501241832,6240,05,01,24,18,32,05/01/24 18:32,05/01/24 18:30,0,0,0,0,0,0,00812,0,0,0084,1354,0,0
6240,0501241833,6240,05,01,24,18,33,05/01/24 18:33,05/01/24 18:30,0,0,0,0,0,0,00813,0,0,0084,1354,0,0
6240,0501241838,6240,05,01,24,18,38,05/01/24 18:38,05/01/24 18:35,0,0,0,0,0,0,00809,0,0,0082,1357,0,0
6240,0501241843,6240,05,01,24,18,43,05/01/24 18:43,05/01/24 18:40,0,0,0,0,0,0,00808,0,0,0082,1361,0,0
6240,0501241848,6240,05,01,24,18,48,05/01/24 18:48,05/01/24 18:45,0,0,0,0,0,0,00806,0,0,0081,1358,0,0
6240,0501241853,6240,05,01,24,18,53,05/01/24 18:53,05/01/24 18:50,0,0,0,0,0,0,00808,0,0,0081,1361,0,0
6240,0501241858,6240,05,01,24,18,58,05/01/24 18:58,05/01/24 18:55,0,0,0,0,0,0,00806,0,0,0081,1359,0,0
6240,0501241904,6240,05,01,24,19,04,05/01/24 19:04,05/01/24 19:0,0,0,0,0,0,0,00803,0,0,0081,1360,0,0
6240,0501241909,6240,05,01,24,19,09,05/01/24 19:09,05/01/24 19:5,0,0,0,0,0,0,00803,0,0,0081,1355,0,0
6240,0501241914,6240,05,01,24,19,14,05/01/24 19:14,05/01/24 19:10,0,0,0,0,0,0,00812,0,0,0081,1359,0,0
6240,0501241919,6240,05,01,24,19,19,05/01/24 19:19,05/01/24 19:15,0,0,0,0,0,0,00812,0,0,0084,1358,0,0
6240,0501241924,6240,05,01,24,19,24,05/01/24 19:24,05/01/24 19:20,0,0,0,0,0,0,00810,0,0,0084,1357,0,0
6240,0501241929,6240,05,01,24,19,29,05/01/24 19:29,05/01/24 19:25,0,0,0,0,0,0,00809,0,0,0084,1357,0,0
6240,0501241934,6240,05,01,24,19,34,05/01/24 19:34,05/01/24 19:30,0,0,0,0,0,0,00811,0,0,0081,1357,0,0
6240,0501241939,6240,05,01,24,19,39,05/01/24 19:39,05/01/24 19:35,0,0,0,0,0,0,00806,0,0,0081,1353,0,0
6240,0501241944,6240,05,01,24,19,44,05/01/24 19:44,05/01/24 19:40,0,0,0,0,0,0,00808,0,0,0081,1353,0,0
6240,0501241950,6240,05,01,24,19,50,05/01/24 19:50,05/01/24 19:50,0,0,0,0,0,0,00805,0,0,0081,1353,0,0
6240,0501241955,6240,05,01,24,19,55,05/01/24 19:55,05/01/24 19:55,0,0,0,0,0,0,00805,0,0,0081,1355,0,0
6240,0501242000,6240,05,01,24,20,00,05/01/24 20:00,05/01/24 20:0,0,0,0,0,0,0,00812,0,0,0081,1351,0,0
6240,0501242005,6240,05,01,24,20,05,05/01/24 20:05,05/01/24 20:5,0,0,0,0,0,0,00811,0,0,0080,1358,0,0
6240,0501242010,6240,05,01,24,20,10,05/01/24 20:10,05/01/24 20:10,0,0,0,0,0,0,00807,0,0,0080,1350,0,0
6240,0501242015,6240,05,01,24,20,15,05/01/24 20:15,05/01/24 20:15,0,0,0,0,0,0,00808,0,0,0080,1354,0,0
6240,0501242020,6240,05,01,24,20,20,05/01/24 20:20,05/01/24 20:20,0,0,0,0,0,0,00815,0,0,0079,1353,0,0
6240,0501242025,6240,05,01,24,20,25,05/01/24 20:25,05/01/24 20:25,0,0,0,0,0,0,00815,0,0,0079,1349,0,0
6240,0501242030,6240,05,01,24,20,30,05/01/24 20:30,05/01/24 20:30,0,0,0,0,0,0,00813,0,0,0079,1350,0,0
6240,0501242036,6240,05,01,24,20,36,05/01/24 20:36,05/01/24 20:35,0,0,0,0,0,0,00818,0,0,0078,1349,0,0
6240,0501242041,6240,05,01,24,20,41,05/01/24 20:41,05/01/24 20:40,0,0,0,0,0,0,00816,0,0,0078,1350,0,0
6240,0501242046,6240,05,01,24,20,46,05/01/24 20:46,05/01/24 20:45,0,0,0,0,0,0,00814,0,0,0078,1349,0,0
6240,0501242051,6240,05,01,24,20,51,05/01/24 20:51,05/01/24 20:50,0,0,0,0,0,0,01103,0,0,0077,1351,0,0
6240,0501242056,6240,05,01,24,20,56,05/01/24 20:56,05/01/24 20:55,0,0,0,0,0,0,01107,0,0,0077,1351,0,0
6240,0501242101,6240,05,01,24,21,01,05/01/24 21:01,05/01/24 21:0,0,0,0,0,0,0,01112,0,0,0077,1350,0,0
6240,0501242106,6240,05,01,24,21,06,05/01/24 21:06,05/01/24 21:5,0,0,0,0,0,0,01107,0,0,0077,1349,0,0
6240,0501242111,6240,05,01,24,21,11,05/01/24 21:11,05/01/24 21:10,0,0,0,0,0,0,01109,0,0,0077,1351,0,0
6240,0501242116,6240,05,01,24,21,16,05/01/24 21:16,05/01/24 21:15,0,0,0,0,0,0,01109,0,0,0077,1344,0,0
6240,0501242122,6240,05,01,24,21,22,05/01/24 21:22,05/01/24 21:20,0,0,0,0,0,0,01095,0,0,0077,1347,0,0
6240,0501242127,6240,05,01,24,21,27,05/01/24 21:27,05/01/24 21:25,0,0,0,0,0,0,01091,0,0,0076,1348,0,0
6240,0501242132,6240,05,01,24,21,32,05/01/24 21:32,05/01/24 21:30,0,0,0,0,0,0,01089,0,0,0076,1349,0,0
6240,0501242137,6240,05,01,24,21,37,05/01/24 21:37,05/01/24 21:35,0,0,0,0,0,0,01095,0,0,0076,1351,0,0
6240,0501242142,6240,05,01,24,21,42,05/01/24 21:42,05/01/24 21:40,0,0,0,0,0,0,01090,0,0,0076,1348,0,0
6240,0501242147,6240,05,01,24,21,47,05/01/24 21:47,05/01/24 21:45,0,0,0,0,0,0,01092,0,0,0076,1348,0,0
6240,0501242153,6240,05,01,24,21,53,05/01/24 21:53,05/01/24 21:50,0,0,0,0,0,0,01092,0,0,0075,1347,0,0
6240,0501242158,6240,05,01,24,21,58,05/01/24 21:58,05/01/24 21:55,0,0,0,0,0,0,01096,0,0,0075,1345,0,0
6240,0501242203,6240,05,01,24,22,03,05/01/24 22:03,05/01/24 22:0,0,0,0,0,0,0,01096,0,0,0075,1346,0,0
6240,0501242208,6240,05,01,24,22,08,05/01/24 22:08,05/01/24 22:5,0,0,0,0,0,0,01093,0,0,0075,1347,0,0
6240,0501242213,6240,05,01,24,22,13,05/01/24 22:13,05/01/24 22:10,0,0,0,0,0,0,01098,0,0,0075,1349,0,0
6240,0501242218,6240,05,01,24,22,18,05/01/24 22:18,05/01/24 22:15,0,0,0,0,0,0,01099,0,0,0074,1349,0,0
6240,0501242224,6240,05,01,24,22,24,05/01/24 22:24,05/01/24 22:20,0,0,0,0,0,0,01094,0,0,0074,1348,0,0
6240,0501242229,6240,05,01,24,22,29,05/01/24 22:29,05/01/24 22:25,0,0,0,0,0,0,01092,0,0,0074,1348,0,0
6240,0501242234,6240,05,01,24,22,34,05/01/24 22:34,05/01/24 22:30,0,0,0,0,0,0,01208,0,0,0074,1347,0,0
6240,0501242239,6240,05,01,24,22,39,05/01/24 22:39,05/01/24 22:35,0,0,0,0,0,0,01202,0,0,0074,1348,0,0
6240,0501242244,6240,05,01,24,22,44,05/01/24 22:44,05/01/24 22:40,0,0,0,0,0,0,01208,0,0,0075,1346,0,0
6240,0501242249,6240,05,01,24,22,49,05/01/24 22:49,05/01/24 22:45,0,0,0,0,0,0,01207,0,0,0075,1343,0,0
6240,0501242255,6240,05,01,24,22,55,05/01/24 22:55,05/01/24 22:55,0,0,0,0,0,0,01207,0,0,0076,1346,0,0
6240,0501242300,6240,05,01,24,23,00,05/01/24 23:00,05/01/24 23:0,0,0,0,0,0,0,01204,0,0,0076,1345,0,0
6240,0501242305,6240,05,01,24,23,05,05/01/24 23:05,05/01/24 23:5,0,0,0,0,0,0,01200,0,0,0076,1345,0,0
6240,0501242310,6240,05,01,24,23,10,05/01/24 23:10,05/01/24 23:10,0,0,0,0,0,0,01207,0,0,0076,1345,0,0
6240,0501242315,6240,05,01,24,23,15,05/01/24 23:15,05/01/24 23:15,0,0,0,0,0,0,01207,0,0,0076,1344,0,0
6240,0501242320,6240,05,01,24,23,20,05/01/24 23:20,05/01/24 23:20,0,0,0,0,0,0,01204,0,0,0076,1343,0,0
6240,0501242325,6240,05,01,24,23,25,05/01/24 23:25,05/01/24 23:25,0,0,0,0,0,0,01207,0,0,0076,1343,0,0
6240,0501242330,6240,05,01,24,23,30,05/01/24 23:30,05/01/24 23:30,0,0,0,0,0,0,01204,0,0,0075,1340,0,0
6240,0501242335,6240,05,01,24,23,35,05/01/24 23:35,05/01/24 23:35,0,0,0,0,0,0,01208,0,0,0075,1340,0,0
6240,0501242341,6240,05,01,24,23,41,05/01/24 23:41,05/01/24 23:40,0,0,0,0,0,0,01203,0,0,0075,1343,0,0
6240,0501242346,6240,05,01,24,23,46,05/01/24 23:46,05/01/24 23:45,0,0,0,0,0,0,01206,0,0,0075,1340,0,0
6240,0501242351,6240,05,01,24,23,51,05/01/24 23:51,05/01/24 23:50,0,0,0,0,0,0,01204,0,0,0075,1340,0,0
6240,0501242356,6240,05,01,24,23,56,05/01/24 23:56,05/01/24 23:55,0,0,0,0,0,0,01208,0,0,0075,1339,0,0
6240,0502240001,6240,05,02,24,00,01,05/02/24 00:01,05/02/24 00:0,0,0,0,0,0,0,01199,0,0,0075,1339,0,0
6240,0502240006,6240,05,02,24,00,06,05/02/24 00:06,05/02/24 00:5,0,0,0,0,0,0,01203,0,0,0075,1340,0,0
6240,0502240011,6240,05,02,24,00,11,05/02/24 00:11,05/02/24 00:10,0,0,0,0,0,0,01206,0,0,0075,1342,0,0
6240,0502240016,6240,05,02,24,00,16,05/02/24 00:16,05/02/24 00:15,0,0,0,0,0,0,01199,0,0,0075,1338,0,0
6240,0502240021,6240,05,02,24,00,21,05/02/24 00:21,05/02/24 00:20,0,0,0,0,0,0,01201,0,0,0075,1340,0,0
6240,0502240027,6240,05,02,24,00,27,05/02/24 00:27,05/02/24 00:25,0,0,0,0,0,0,01205,0,0,0075,1339,0,0
6240,0502240032,6240,05,02,24,00,32,05/02/24 00:32,05/02/24 00:30,0,0,0,0,0,0,01209,0,0,0075,1340,0,0
6240,0502240037,6240,05,02,24,00,37,05/02/24 00:37,05/02/24 00:35,0,0,0,0,0,0,01206,0,0,0074,1338,0,0
6240,0502240043,6240,05,02,24,00,43,05/02/24 00:43,05/02/24 00:40,0,0,0,0,0,0,01204,0,0,0074,1341,0,0
6240,0502240048,6240,05,02,24,00,48,05/02/24 00:48,05/02/24 00:45,0,0,0,0,0,0,01206,0,0,0074,1339,0,0
6240,0502240053,6240,05,02,24,00,53,05/02/24 00:53,05/02/24 00:50,0,0,0,0,0,0,01204,0,0,0074,1338,0,0
6240,0502240058,6240,05,02,24,00,58,05/02/24 00:58,05/02/24 00:55,0,0,0,0,0,0,01206,0,0,0074,1339,0,0
6240,0502240103,6240,05,02,24,01,03,05/02/24 01:03,05/02/24 01:0,0,0,0,0,0,0,01205,0,0,0074,1338,0,0
6240,0502240108,6240,05,02,24,01,08,05/02/24 01:08,05/02/24 01:5,0,0,0,0,0,0,01204,0,0,0074,1341,0,0
6240,0502240129,6241,05,02,24,01,29,05/02/24 01:29,05/02/24 01:25,0,0,0,0,0,0,01206,0,0,0074,1335,0,0
6240,0502240135,6241,05,02,24,01,35,05/02/24 01:35,05/02/24 01:35,0,0,0,0,0,0,01203,0,0,0074,1337,0,0
6240,0502240140,6241,05,02,24,01,40,05/02/24 01:40,05/02/24 01:40,0,0,0,0,0,0,01209,0,0,0074,1337,0,0
6240,0502240145,6241,05,02,24,01,45,05/02/24 01:45,05/02/24 01:45,0,0,0,0,0,0,01202,0,0,0073,1336,0,0
6240,0502240150,6241,05,02,24,01,50,05/02/24 01:50,05/02/24 01:50,0,0,0,0,0,0,01206,0,0,0073,1340,0,0
6240,0502240155,6241,05,02,24,01,55,05/02/24 01:55,05/02/24 01:55,0,0,0,0,0,0,01209,0,0,0073,1343,0,0
6240,0502240201,6241,05,02,24,02,01,05/02/24 02:01,05/02/24 02:0,0,0,0,0,0,0,01202,0,0,0073,1335,0,0
6240,0502240206,6241,05,02,24,02,06,05/02/24 02:06,05/02/24 02:5,0,0,0,0,0,0,01205,0,0,0073,1339,0,0
6240,0502240211,6241,05,02,24,02,11,05/02/24 02:11,05/02/24 02:10,0,0,0,0,0,0,01210,0,0,0073,1340,0,0
6240,0502240216,6241,05,02,24,02,16,05/02/24 02:16,05/02/24 02:15,0,0,0,0,0,0,01213,0,0,0073,1337,0,0
6240,0502240221,6241,05,02,24,02,21,05/02/24 02:21,05/02/24 02:20,0,0,0,0,0,0,01209,0,0,0073,1339,0,0
6240,0502240226,6241,05,02,24,02,26,05/02/24 02:26,05/02/24 02:25,0,0,0,0,0,0,01210,0,0,0073,1338,0,0
6240,0502240232,6241,05,02,24,02,32,05/02/24 02:32,05/02/24 02:30,0,0,0,0,0,0,01209,0,0,0073,1337,0,0
6240,0502240237,6241,05,02,24,02,37,05/02/24 02:37,05/02/24 02:35,0,0,0,0,0,0,01205,0,0,0072,1339,0,0
6240,0502240242,6241,05,02,24,02,42,05/02/24 02:42,05/02/24 02:40,0,0,0,0,0,0,01208,0,0,0072,1336,0,0
6240,0502240247,6241,05,02,24,02,47,05/02/24 02:47,05/02/24 02:45,0,0,0,0,0,0,01206,0,0,0072,1340,0,0
6240,0502240252,6241,05,02,24,02,52,05/02/24 02:52,05/02/24 02:50,0,0,0,0,0,0,01206,0,0,0072,1336,0,0
6240,0502240257,6241,05,02,24,02,57,05/02/24 02:57,05/02/24 02:55,0,0,0,0,0,0,01203,0,0,0072,1337,0,0
6240,0502240302,6241,05,02,24,03,02,05/02/24 03:02,05/02/24 03:0,0,0,0,0,0,0,01210,0,0,0072,1336,0,0
6240,0502240307,6241,05,02,24,03,07,05/02/24 03:07,05/02/24 03:5,0,0,0,0,0,0,01209,0,0,0072,1338,0,0
6240,0502240312,6241,05,02,24,03,12,05/02/24 03:12,05/02/24 03:10,0,0,0,0,0,0,01208,0,0,0072,1338,0,0
6240,0502240318,6241,05,02,24,03,18,05/02/24 03:18,05/02/24 03:15,0,0,0,0,0,0,01206,0,0,0072,1336,0,0
6240,0502240323,6241,05,02,24,03,23,05/02/24 03:23,05/02/24 03:20,0,0,0,0,0,0,01205,0,0,0072,1339,0,0
6240,0502240328,6241,05,02,24,03,28,05/02/24 03:28,05/02/24 03:25,0,0,0,0,0,0,01206,0,0,0072,1337,0,0
6240,0502240333,6241,05,02,24,03,33,05/02/24 03:33,05/02/24 03:30,0,0,0,0,0,0,01209,0,0,0072,1338,0,0
6240,0502240338,6241,05,02,24,03,38,05/02/24 03:38,05/02/24 03:35,0,0,0,0,0,0,01209,0,0,0072,1336,0,0
6240,0502240343,6241,05,02,24,03,43,05/02/24 03:43,05/02/24 03:40,0,0,0,0,0,0,01208,0,0,0072,1338,0,0
6240,0502240349,6241,05,02,24,03,49,05/02/24 03:49,05/02/24 03:45,0,0,0,0,0,0,01211,0,0,0072,1337,0,0
6240,0502240354,6241,05,02,24,03,54,05/02/24 03:54,05/02/24 03:50,0,0,0,0,0,0,01206,0,0,0072,1337,0,0
6240,0502240359,6241,05,02,24,03,59,05/02/24 03:59,05/02/24 03:55,0,0,0,0,0,0,01206,0,0,0072,1338,0,0
6240,0502240404,6241,05,02,24,04,04,05/02/24 04:04,05/02/24 04:0,0,0,0,0,0,0,01208,0,0,0072,1340,0,0
6240,0502240409,6241,05,02,24,04,09,05/02/24 04:09,05/02/24 04:5,0,0,0,0,0,0,01208,0,0,0072,1335,0,0
6240,0502240414,6241,05,02,24,04,14,05/02/24 04:14,05/02/24 04:10,0,0,0,0,0,0,01205,0,0,0072,1337,0,0
6240,0502240419,6241,05,02,24,04,19,05/02/24 04:19,05/02/24 04:15,0,0,0,0,0,0,01205,0,0,0072,1335,0,0
6240,0502240424,6241,05,02,24,04,24,05/02/24 04:24,05/02/24 04:20,0,0,0,0,0,0,01208,0,0,0071,1337,0,0
6240,0502240429,6241,05,02,24,04,29,05/02/24 04:29,05/02/24 04:25,0,0,0,0,0,0,01205,0,0,0071,1337,0,0
6240,0502240435,6241,05,02,24,04,35,05/02/24 04:35,05/02/24 04:35,0,0,0,0,0,0,01208,0,0,0071,1336,0,0
6240,0502240440,6241,05,02,24,04,40,05/02/24 04:40,05/02/24 04:40,0,0,0,0,0,0,01200,0,0,0071,1338,0,0
6240,0502240445,6241,05,02,24,04,45,05/02/24 04:45,05/02/24 04:45,0,0,0,0,0,0,01208,0,0,0071,1335,0,0
6240,0502240450,6241,05,02,24,04,50,05/02/24 04:50,05/02/24 04:50,0,0,0,0,0,0,01206,0,0,0071,1338,0,0
6240,0502240455,6241,05,02,24,04,55,05/02/24 04:55,05/02/24 04:55,0,0,0,0,0,0,01208,0,0,0071,1337,0,0
6240,0502240500,6241,05,02,24,05,00,05/02/24 05:00,05/02/24 05:0,0,0,0,0,0,0,01208,0,0,0071,1335,0,0
6240,0502240505,6241,05,02,24,05,05,05/02/24 05:05,05/02/24 05:5,0,0,0,0,0,0,01211,0,0,0071,1338,0,0
6240,0502240510,6241,05,02,24,05,10,05/02/24 05:10,05/02/24 05:10,0,0,0,0,0,0,01209,0,0,0071,1337,0,0
6240,0502240515,6241,05,02,24,05,15,05/02/24 05:15,05/02/24 05:15,0,0,0,0,0,0,01205,0,0,0071,1336,0,0
6240,0502240521,6241,05,02,24,05,21,05/02/24 05:21,05/02/24 05:20,0,0,0,0,0,0,01212,0,0,0071,1333,0,0
6240,0502240526,6241,05,02,24,05,26,05/02/24 05:26,05/02/24 05:25,0,0,0,0,0,0,01213,0,0,0071,1333,0,0
6240,0502240531,6241,05,02,24,05,31,05/02/24 05:31,05/02/24 05:30,0,0,0,0,0,0,01207,0,0,0071,1340,0,0
6240,0502240536,6241,05,02,24,05,36,05/02/24 05:36,05/02/24 05:35,0,0,0,0,0,0,01206,0,0,0071,1338,0,0
6240,0502240541,6241,05,02,24,05,41,05/02/24 05:41,05/02/24 05:40,0,0,0,0,0,0,01204,0,0,0071,1337,0,0
6240,0502240546,6241,05,02,24,05,46,05/02/24 05:46,05/02/24 05:45,0,0,0,0,0,0,01208,0,0,0070,1337,0,0
6240,0502240552,6241,05,02,24,05,52,05/02/24 05:52,05/02/24 05:50,0,0,0,0,0,0,01208,0,0,0070,1336,0,0
6240,0502240557,6241,05,02,24,05,57,05/02/24 05:57,05/02/24 05:55,0,0,0,0,0,0,01211,0,0,0070,1337,0,0
6240,0502240602,6241,05,02,24,06,02,05/02/24 06:02,05/02/24 06:0,0,0,0,0,0,0,01208,0,0,0070,1335,0,0
6240,0502240607,6241,05,02,24,06,07,05/02/24 06:07,05/02/24 06:5,0,0,0,0,0,0,01212,0,0,0070,1334,0,0
6240,0502240612,6241,05,02,24,06,12,05/02/24 06:12,05/02/24 06:10,0,0,0,0,0,0,01209,0,0,0070,1338,0,0
6240,0502240617,6241,05,02,24,06,17,05/02/24 06:17,05/02/24 06:15,0,0,0,0,0,0,01211,0,0,0070,1337,0,0
6240,0502240623,6241,05,02,24,06,23,05/02/24 06:23,05/02/24 06:20,0,0,0,0,0,0,01208,0,0,0070,1335,0,0
6240,0502240628,6241,05,02,24,06,28,05/02/24 06:28,05/02/24 06:25,0,0,0,0,0,0,01208,0,0,0070,1336,0,0
6240,0502240633,6241,05,02,24,06,33,05/02/24 06:33,05/02/24 06:30,0,0,0,0,0,0,01208,0,0,0070,1333,0,0
6240,0502240638,6241,05,02,24,06,38,05/02/24 06:38,05/02/24 06:35,0,0,0,0,0,0,01210,0,0,0070,1336,0,0
6240,0502240643,6241,05,02,24,06,43,05/02/24 06:43,05/02/24 06:40,0,0,0,0,0,0,00238,0,0,0070,1336,0,0
6240,0502240648,6241,05,02,24,06,48,05/02/24 06:48,05/02/24 06:45,0,0,0,0,0,0,01159,0,0,0070,1336,0,0
6240,0502240654,6241,05,02,24,06,54,05/02/24 06:54,05/02/24 06:50,0,0,0,0,0,0,01154,0,0,0070,1336,0,0
6240,0502240659,6241,05,02,24,06,59,05/02/24 06:59,05/02/24 06:55,0,0,0,0,0,0,01158,0,0,0070,1335,0,0
6240,0502240704,6241,05,02,24,07,04,05/02/24 07:04,05/02/24 07:0,0,0,0,0,0,0,01161,0,0,0070,1336,0,0
6240,0502240730,6240,05,02,24,07,30,05/02/24 07:30,05/02/24 07:30,0,0,0,0,0,0,01157,0,0,0071,1332,0,0
6240,0502240735,6240,05,02,24,07,35,05/02/24 07:35,05/02/24 07:35,0,0,0,0,0,0,01160,0,0,0071,1335,0,0
6240,0502240740,6240,05,02,24,07,40,05/02/24 07:40,05/02/24 07:40,0,0,0,0,0,0,01128,0,0,0072,1334,0,0
6240,0502240745,6240,05,02,24,07,45,05/02/24 07:45,05/02/24 07:45,0,0,0,0,0,0,01122,0,0,0072,1334,0,0
6240,0502240750,6240,05,02,24,07,50,05/02/24 07:50,05/02/24 07:50,0,0,0,0,0,0,01123,0,0,0072,1332,0,0
6240,0502240755,6240,05,02,24,07,55,05/02/24 07:55,05/02/24 07:55,0,0,0,0,0,0,01122,0,0,0072,1329,0,0
6240,0502240801,6240,05,02,24,08,01,05/02/24 08:01,05/02/24 08:0,0,0,0,0,0,0,01124,0,0,0072,1333,0,0
6240,0502240806,6240,05,02,24,08,06,05/02/24 08:06,05/02/24 08:5,0,0,0,0,0,0,01122,0,0,0071,1334,0,0
6240,0502240811,6240,05,02,24,08,11,05/02/24 08:11,05/02/24 08:10,0,0,0,0,0,0,01124,0,0,0071,1335,0,0
6240,0502240816,6240,05,02,24,08,16,05/02/24 08:16,05/02/24 08:15,0,0,0,0,0,0,01125,0,0,0071,1335,0,0
6240,0502240821,6240,05,02,24,08,21,05/02/24 08:21,05/02/24 08:20,0,0,0,0,0,0,01116,0,0,0071,1336,0,0
6240,0502240826,6240,05,02,24,08,26,05/02/24 08:26,05/02/24 08:25,0,0,0,0,0,0,01127,0,0,0071,1335,0,0
6240,0502240832,6240,05,02,24,08,32,05/02/24 08:32,05/02/24 08:30,0,0,0,0,0,0,01125,0,0,0071,1336,0,0
6240,0502240837,6240,05,02,24,08,37,05/02/24 08:37,05/02/24 08:35,0,0,0,0,0,0,01124,0,0,0071,1336,0,0
6240,0502240842,6240,05,02,24,08,42,05/02/24 08:42,05/02/24 08:40,0,0,0,0,0,0,01124,0,0,0071,1333,0,0
6240,0502240848,6240,05,02,24,08,48,05/02/24 08:48,05/02/24 08:45,0,0,0,0,0,0,01122,0,0,0072,1335,0,0
6240,0502240853,6240,05,02,24,08,53,05/02/24 08:53,05/02/24 08:50,0,0,0,0,0,0,01126,0,0,0072,1335,0,0
6240,0502240858,6240,05,02,24,08,58,05/02/24 08:58,05/02/24 08:55,0,0,0,0,0,0,01126,0,0,0072,1334,0,0
6240,0502240903,6240,05,02,24,09,03,05/02/24 09:03,05/02/24 09:0,0,0,0,0,0,0,01121,0,0,0072,1335,0,0
6240,0502240908,6240,05,02,24,09,08,05/02/24 09:08,05/02/24 09:5,0,0,0,0,0,0,01122,0,0,0072,1334,0,0
6240,0502240913,6240,05,02,24,09,13,05/02/24 09:13,05/02/24 09:10,0,0,0,0,0,0,01118,0,0,0072,1332,0,0
6240,0502240919,6240,05,02,24,09,19,05/02/24 09:19,05/02/24 09:15,0,0,0,0,0,0,01128,0,0,0072,1334,0,0
6240,0502240924,6240,05,02,24,09,24,05/02/24 09:24,05/02/24 09:20,0,0,0,0,0,0,01124,0,0,0072,1332,0,0
6240,0502240929,6240,05,02,24,09,29,05/02/24 09:29,05/02/24 09:25,0,0,0,0,0,0,01121,0,0,0073,1332,0,0
6240,0502240934,6240,05,02,24,09,34,05/02/24 09:34,05/02/24 09:30,0,0,0,0,0,0,01124,0,0,0073,1333,0,0
6240,0502240939,6240,05,02,24,09,39,05/02/24 09:39,05/02/24 09:35,0,0,0,0,0,0,01121,0,0,0073,1330,0,0
6240,0502240944,6240,05,02,24,09,44,05/02/24 09:44,05/02/24 09:40,0,0,0,0,0,0,01120,0,0,0073,1331,0,0
6240,0502240950,6240,05,02,24,09,50,05/02/24 09:50,05/02/24 09:50,0,0,0,0,0,0,01119,0,0,0073,1334,0,0
6240,0502240955,6240,05,02,24,09,55,05/02/24 09:55,05/02/24 09:55,0,0,0,0,0,0,01120,0,0,0073,1332,0,0
6240,0502241000,6240,05,02,24,10,00,05/02/24 10:00,05/02/24 10:0,0,0,0,0,0,0,01125,0,0,0074,1333,0,0
6240,0502241005,6240,05,02,24,10,05,05/02/24 10:05,05/02/24 10:5,0,0,0,0,0,0,01117,0,0,0074,1330,0,0
6240,0502241010,6240,05,02,24,10,10,05/02/24 10:10,05/02/24 10:10,0,0,0,0,0,0,01123,0,0,0074,1332,0,0
6240,0502241015,6240,05,02,24,10,15,05/02/24 10:15,05/02/24 10:15,0,0,0,0,0,0,01123,0,0,0074,1333,0,0
6240,0502241021,6240,05,02,24,10,21,05/02/24 10:21,05/02/24 10:20,0,0,0,0,0,0,01124,0,0,0075,1331,0,0
6240,0502241026,6240,05,02,24,10,26,05/02/24 10:26,05/02/24 10:25,0,0,0,0,0,0,01120,0,0,0075,1330,0,0
6240,0502241031,6240,05,02,24,10,31,05/02/24 10:31,05/02/24 10:30,0,0,0,0,0,0,01121,0,0,0075,1334,0,0
6240,0502241036,6240,05,02,24,10,36,05/02/24 10:36,05/02/24 10:35,0,0,0,0,0,0,01121,0,0,0075,1335,0,0
6240,0502241041,6240,05,02,24,10,41,05/02/24 10:41,05/02/24 10:40,0,0,0,0,0,0,01121,0,0,0076,1329,0,0
6240,0502241046,6240,05,02,24,10,46,05/02/24 10:46,05/02/24 10:45,0,0,0,0,0,0,01118,0,0,0076,1331,0,0
6240,0502241052,6240,05,02,24,10,52,05/02/24 10:52,05/02/24 10:50,0,0,0,0,0,0,01122,0,0,0076,1331,0,0
6240,0502241057,6240,05,02,24,10,57,05/02/24 10:57,05/02/24 10:55,0,0,0,0,0,0,01121,0,0,0076,1329,0,0
6240,0502241102,6240,05,02,24,11,02,05/02/24 11:02,05/02/24 11:0,0,0,0,0,0,0,01122,0,0,0076,1330,0,0
6240,0502241107,6240,05,02,24,11,07,05/02/24 11:07,05/02/24 11:5,0,0,0,0,0,0,01122,0,0,0076,1330,0,0
6240,0502241112,6240,05,02,24,11,12,05/02/24 11:12,05/02/24 11:10,0,0,0,0,0,0,01122,0,0,0076,1333,0,0
6240,0502241117,6240,05,02,24,11,17,05/02/24 11:17,05/02/24 11:15,0,0,0,0,0,0,01119,0,0,0076,1331,0,0
6240,0502241123,6240,05,02,24,11,23,05/02/24 11:23,05/02/24 11:20,0,0,0,0,0,0,01123,0,0,0077,1328,0,0
6240,0502241128,6240,05,02,24,11,28,05/02/24 11:28,05/02/24 11:25,0,0,0,0,0,0,01119,0,0,0077,1329,0,0
6240,0502241133,6240,05,02,24,11,33,05/02/24 11:33,05/02/24 11:30,0,0,0,0,0,0,01124,0,0,0077,1332,0,0
6240,0502241138,6240,05,02,24,11,38,05/02/24 11:38,05/02/24 11:35,0,0,0,0,0,0,01123,0,0,0077,1333,0,0
6240,0502241143,6240,05,02,24,11,43,05/02/24 11:43,05/02/24 11:40,0,0,0,0,0,0,01123,0,0,0077,1331,0,0
6240,0502241148,6240,05,02,24,11,48,05/02/24 11:48,05/02/24 11:45,0,0,0,0,0,0,01123,0,0,0077,1331,0,0
6240,0502241154,6240,05,02,24,11,54,05/02/24 11:54,05/02/24 11:50,0,0,0,0,0,0,01120,0,0,0077,1331,0,0
6240,0502241159,6240,05,02,24,11,59,05/02/24 11:59,05/02/24 11:55,0,0,0,0,0,0,01119,0,0,0077,1328,0,0
6240,0502241204,6240,05,02,24,12,04,05/02/24 12:04,05/02/24 12:0,0,0,0,0,0,0,01125,0,0,0077,1330,0,0
6240,0502241224,6240,05,02,24,12,24,05/02/24 12:24,05/02/24 12:20,0,0,0,0,0,0,01121,0,0,0078,1328,0,0
6240,0502241229,6240,05,02,24,12,29,05/02/24 12:29,05/02/24 12:25,0,0,0,0,0,0,01115,0,0,0078,1325,0,0
6240,0502241234,6240,05,02,24,12,34,05/02/24 12:34,05/02/24 12:30,0,0,0,0,0,0,01116,0,0,0078,1327,0,0
6240,0502241240,6240,05,02,24,12,40,05/02/24 12:40,05/02/24 12:40,0,0,0,0,0,0,01118,0,0,0078,1325,0,0
6240,0502241245,6240,05,02,24,12,45,05/02/24 12:45,05/02/24 12:45,0,0,0,0,0,0,01119,0,0,0078,1328,0,0
6240,0502241250,6240,05,02,24,12,50,05/02/24 12:50,05/02/24 12:50,0,0,0,0,0,0,01121,0,0,0078,1326,0,0
6240,0502241255,6240,05,02,24,12,55,05/02/24 12:55,05/02/24 12:55,0,0,0,0,0,0,01122,0,0,0078,1331,0,0
6240,0502241300,6240,05,02,24,13,00,05/02/24 13:00,05/02/24 13:0,0,0,0,0,0,0,01119,0,0,0078,1326,0,0
6240,0502241305,6240,05,02,24,13,05,05/02/24 13:05,05/02/24 13:5,0,0,0,0,0,0,01122,0,0,0078,1327,0,0
6240,0502241311,6240,05,02,24,13,11,05/02/24 13:11,05/02/24 13:10,0,0,0,0,0,0,01122,0,0,0078,1327,0,0
6240,0502241316,6240,05,02,24,13,16,05/02/24 13:16,05/02/24 13:15,0,0,0,0,0,0,01121,0,0,0078,1328,0,0
6240,0502241321,6240,05,02,24,13,21,05/02/24 13:21,05/02/24 13:20,0,0,0,0,0,0,01123,0,0,0078,1330,0,0
6240,0502241326,6240,05,02,24,13,26,05/02/24 13:26,05/02/24 13:25,0,0,0,0,0,0,01118,0,0,0079,1329,0,0
6240,0502241331,6240,05,02,24,13,31,05/02/24 13:31,05/02/24 13:30,0,0,0,0,0,0,01122,0,0,0079,1325,0,0
6240,0502241336,6240,05,02,24,13,36,05/02/24 13:36,05/02/24 13:35,0,0,0,0,0,0,01121,0,0,0079,1327,0,0
6240,0502241342,6240,05,02,24,13,42,05/02/24 13:42,05/02/24 13:40,0,0,0,0,0,0,01122,0,0,0079,1326,0,0
6240,0502241347,6240,05,02,24,13,47,05/02/24 13:47,05/02/24 13:45,0,0,0,0,0,0,01115,0,0,0079,1328,0,0
6240,0502241352,6240,05,02,24,13,52,05/02/24 13:52,05/02/24 13:50,0,0,0,0,0,0,01123,0,0,0079,1327,0,0
6240,0502241357,6240,05,02,24,13,57,05/02/24 13:57,05/02/24 13:55,0,0,0,0,0,0,01118,0,0,0079,1326,0,0
6240,0502241402,6240,05,02,24,14,02,05/02/24 14:02,05/02/24 14:0,0,0,0,0,0,0,01121,0,0,0079,1325,0,0
6240,0502241407,6240,05,02,24,14,07,05/02/24 14:07,05/02/24 14:5,0,0,0,0,0,0,01118,0,0,0079,1325,0,0
6240,0502241412,6240,05,02,24,14,12,05/02/24 14:12,05/02/24 14:10,0,0,0,0,0,0,01120,0,0,0079,1328,0,0
6240,0502241417,6240,05,02,24,14,17,05/02/24 14:17,05/02/24 14:15,0,0,0,0,0,0,01119,0,0,0079,1325,0,0
6240,0502241422,6240,05,02,24,14,22,05/02/24 14:22,05/02/24 14:20,0,0,0,0,0,0,01119,0,0,0079,1325,0,0
6240,0502241428,6240,05,02,24,14,28,05/02/24 14:28,05/02/24 14:25,0,0,0,0,0,0,01122,0,0,0079,1326,0,0
6240,0502241433,6240,05,02,24,14,33,05/02/24 14:33,05/02/24 14:30,0,0,0,0,0,0,01123,0,0,0079,1325,0,0
6240,0502241438,6240,05,02,24,14,38,05/02/24 14:38,05/02/24 14:35,0,0,0,0,0,0,01122,0,0,0079,1328,0,0